Location: *
(38.9555°S, 57.3572°E)
Time: 01:43:38
(UTC+00:00)

Meteor 1-16 Rocket - Pass Details

Date: 15 July 2020
Orbit: 790 x 907 km, 81.2° (Epoch: 06 August)

Event Time Altitude Azimuth Distance (km) Brightness Sun altitude
Rises 14:19:53 0° 4° (N) 3,479 7.6 -13.9°
Reaches altitude 10° 14:22:19 10° 7° (N) 2,560 6.8 -14.3°
Maximum altitude 14:28:04 59° 85° (E) 1,043 4.4 -15.4°
Drops below altitude 10° 14:33:58 10° 163° (SSE) 2,622 6.5 -16.5°
Sets 14:36:29 0° 166° (SSE) 3,570 7.2 -17.0°
